Vorticity
2 9 9 2 3 10 4 5 4 0 1 4 1 4 12 -5 9 18 3 8 14 9 9 22 1 2 5 1 9 7 10 11 9 6 6 6 3 5 4 5 6 7 6 5 6 6 5 4 5
1 9 2 1 22 -1 11 3 12 -6 5 0 3 0 1 0 26 10 4 5 9 1 -3 -1 3 -1 -1 -4 5 7 10 7 6 6 5 5 5 5 7 5 7 8 4 5 6 6 5 5 8
3 11 2 9 1 -3 15 8 9 -1 -2 2 -3 9 12 28 4 5 4 2 2 3 1 0 1 1 2 4 9 6 5 8 7 6 5 5 4 6 5 6 7 4 1 2 11 5 4 9 6
5 7 14 19 6 10 8 5 7 7 3 7 2 18 13 2 5 6 4 4 4 2 1 2 3 5 6 8 8 6 8 7 8 6 6 6 6 6 6 7 6 6 5 0 0 1 1 4 5
7 4 9 18 0 12 5 1 5 8 14 8 13 -2 14 5 5 5 5 6 6 6 6 8 9 8 9 9 8 7 7 6 3 6 7 5 7 6 5 6 6 5 5 4 3 6 7 5 5
3 4 17 2 11 2 -1 1 1 11 9 10 -5 10 13 6 5 6 7 6 6 6 7 7 9 9 9 7 8 6 5 6 5 6 7 7 7 7 5 8 6 5 6 6 5 7 6 5 9
5 6 5 13 3 5 2 2 5 11 12 7 17 3 10 2 4 11 8 7 9 8 7 7 7 8 8 10 6 5 5 7 5 7 6 7 7 7 7 7 8 6 6 6 4 6 5 8 9
10 7 18 11 8 3 2 4 7 1 17 6 20 8 17 5 10 8 9 9 9 9 10 6 8 8 10 6 6 5 7 6 5 6 7 6 7 7 8 8 8 8 7 7 7 9 5 9 7
17 11 9 16 0 7 2 2 2 8 -4 9 -2 16 18 2 10 7 11 10 8 8 11 8 7 9 8 6 5 5 6 7 7 8 7 7 7 7 7 7 8 8 10 10 10 7 8 6 4
9 3 14 9 2 9 2 -2 8 -2 4 7 22 5 -9 3 6 8 14 11 8 10 8 7 10 9 6 5 5 6 6 8 7 8 7 5 5 6 7 8 8 8 7 10 6 8 7 4 5
4 23 7 2 -8 4 5 -4 1 1 0 -3 14 16 8 7 6 3 14 8 9 8 8 10 9 6 7 6 6 5 5 5 5 6 6 6 6 6 6 7 10 10 7 9 6 7 4 4 5
5 0 0 20 -12 7 3 3 7 -1 9 4 14 16 6 7 10 3 16 11 8 7 8 9 6 2 5 4 5 6 8 5 4 5 6 6 5 6 6 4 4 7 10 8 8 6 3 5 7
12 5 4 4 12 41 2 9 9 3 -4 -3 11 15 6 4 2 6 12 12 8 7 8 6 4 6 6 5 7 9 9 7 5 5 3 -2 -1 6 3 8 5 8 9 9 7 4 4 6 6
5 3 5 5 42 7 4 10 1 7 4 -1 6 9 17 11 2 4 7 14 11 7 8 7 4 5 3 3 6 8 11 7 6 7 8 3 14 15 9 10 8 9 10 8 6 4 4 7 5
10 8 6 8 37 2 -1 6 3 10 4 4 3 10 12 -2 0 0 5 10 12 10 6 9 8 5 5 9 7 8 14 10 2 -1 19 20 -2 5 19 8 13 5 8 8 6 3 6 7 5
3 8 7 8 27 8 -9 7 3 6 5 2 6 8 15 15 8 3 3 7 13 14 6 8 7 6 2 9 7 4 6 2 9 1 2 2 -8 14 5 13 8 7 10 9 5 6 7 7 5
7 3 3 12 32 13 -4 19 -3 10 -7 0 3 7 13 4 2 2 4 8 11 7 16 3 9 6 6 7 5 8 10 9 10 14 10 7 14 10 9 15 10 11 11 7 4 6 7 5 5
7 7 6 7 15 17 22 -12 4 14 18 11 2 7 4 1 1 1 3 6 5 13 9 9 9 7 3 -2 6 9 2 4 2 6 6 16 11 13 -3 7 8 7 6 6 4 5 6 6 6
1 1 5 21 -2 11 13 -5 45 14 15 12 4 3 0 9 -2 1 0 3 5 10 12 8 7 25 9 5 9 4 8 7 5 7 6 10 1 -6 8 5 2 12 6 4 6 5 7 7 5
4 0 1 11 6 11 6 15 16 3 13 14 4 2 1 2 2 0 0 2 8 4 14 9 6 11 9 4 8 9 5 5 6 10 10 6 14 6 3 15 -10 -2 9 3 5 5 5 5 6
7 3 11 -2 12 6 11 13 11 27 -17 20 4 5 4 0 -1 2 6 2 2 7 11 16 10 8 7 10 4 6 3 7 5 7 7 9 6 8 18 11 21 8 5 8 5 5 4 5 8
9 14 1 6 16 1 10 6 21 -7 25 19 10 9 7 7 -2 -8 5 1 4 6 10 12 10 8 4 5 3 4 3 5 8 5 10 6 7 11 7 2 2 7 8 11 9 8 4 4 8
3 14 6 4 10 1 20 -3 23 11 25 23 10 14 -1 5 6 2 4 2 5 3 8 15 9 8 8 6 7 6 9 7 9 9 9 6 5 7 4 8 11 8 13 11 9 -2 5 4 4
6 11 8 13 6 15 32 -5 27 11 12 13 26 -1 -5 6 6 0 -11 -4 1 6 2 12 14 9 9 6 4 6 8 8 6 5 6 6 7 8 9 9 7 4 6 9 9 6 12 -4 2
11 17 4 10 9 4 17 14 -28 23 13 -1 58 16 15 12 8 5 7 6 1 4 5 10 14 12 7 7 9 6 7 6 4 4 8 8 7 6 7 8 7 10 10 5 13 10 12 6 4
13 -1 -16 9 5 13 20 13 2 17 14 0 0 55 12 17 9 3 6 6 -3 0 4 9 13 13 11 7 5 4 2 2 4 6 3 7 6 8 7 8 8 7 8 4 2 7 10 13 14
32 10 -2 -4 9 15 8 12 4 27 16 16 17 51 7 0 12 2 3 7 -2 1 0 9 10 12 11 10 9 8 4 4 9 5 8 10 6 9 6 9 6 9 6 6 6 5 3 8 6
-8 20 16 4 10 8 15 12 -2 10 23 32 15 -2 17 -7 10 0 1 2 8 1 3 10 6 14 9 9 6 7 6 8 6 5 7 7 11 5 12 5 8 9 10 11 8 8 9 8 9
13 10 3 9 -3 -1 1 17 -5 22 10 25 48 44 17 21 2 8 1 -2 3 2 5 12 8 4 11 12 7 4 8 4 5 7 8 7 8 8 8 11 1 9 13 4 8 8 8 9 7
15 4 13 8 2 10 8 5 -20 34 10 5 -12 24 59 47 13 9 6 3 9 3 2 5 1 3 6 7 12 12 8 8 8 7 8 4 6 5 8 3 8 8 9 2 3 10 10 10 7
Height
3172 3173 3174 3175 3180 3177 3179 3181 3180 3180 3181 3180 3181 3181 3183 3182 3183 3188 3185 3185 3186 3189 3191 3193 3194 3195 3195 3195 3197 3197 3199 3200 3200 3200 3201 3201 3201 3202 3203 3204 3205 3207 3208 3208 3209 3210 3210 3211 3211
3173 3174 3175 3176 3177 3178 3180 3180 3181 3182 3181 3181 3182 3182 3183 3184 3183 3185 3187 3186 3188 3192 3193 3196 3196 3197 3196 3198 3199 3200 3200 3201 3201 3202 3203 3203 3204 3205 3206 3207 3208 3209 3210 3211 3211 3212 3212 3213 3214
3173 3174 3176 3176 3176 3178 3180 3181 3182 3182 3182 3183 3183 3183 3183 3184 3186 3187 3189 3190 3191 3193 3195 3197 3198 3199 3199 3201 3201 3202 3202 3203 3204 3205 3205 3206 3206 3207 3208 3209 3210 3211 3213 3213 3214 3214 3214 3214 3216
3174 3176 3177 3176 3177 3179 3180 3182 3183 3183 3183 3183 3184 3184 3185 3184 3187 3189 3190 3191 3193 3194 3196 3197 3199 3199 3201 3202 3203 3204 3206 3206 3207 3207 3207 3207 3209 3209 3210 3212 3212 3213 3215 3215 3216 3216 3217 3217 3218
3174 3175 3176 3177 3178 3180 3182 3183 3184 3184 3183 3184 3185 3185 3185 3186 3188 3189 3191 3193 3195 3196 3197 3198 3199 3201 3203 3204 3205 3206 3207 3208 3209 3208 3209 3210 3211 3212 3213 3214 3214 3215 3217 3217 3218 3219 3220 3220 3220
3175 3176 3177 3177 3179 3181 3183 3185 3185 3185 3185 3185 3186 3186 3187 3187 3189 3191 3192 3194 3196 3197 3199 3200 3202 3203 3204 3205 3207 3208 3209 3210 3210 3211 3211 3212 3213 3214 3215 3215 3217 3218 3218 3220 3220 3222 3223 3223 3223
3175 3176 3177 3178 3180 3182 3184 3185 3186 3187 3186 3186 3186 3187 3189 3189 3190 3191 3193 3194 3196 3198 3200 3202 3203 3204 3206 3207 3208 3209 3211 3211 3212 3213 3214 3214 3215 3216 3217 3218 3219 3219 3220 3221 3223 3224 3224 3225 3227
3175 3176 3176 3179 3181 3183 3185 3186 3188 3188 3188 3187 3188 3190 3191 3190 3190 3192 3194 3195 3197 3198 3200 3202 3204 3205 3207 3209 3210 3212 3213 3214 3213 3215 3216 3217 3217 3218 3219 3220 3221 3222 3223 3224 3226 3227 3227 3229 3230
3175 3176 3177 3179 3182 3184 3186 3187 3188 3189 3189 3188 3189 3190 3192 3192 3192 3193 3195 3196 3197 3198 3200 3203 3205 3206 3208 3210 3212 3213 3216 3215 3216 3217 3218 3219 3219 3220 3221 3222 3223 3224 3226 3227 3228 3230 3231 3232 3231
3176 3177 3177 3178 3180 3183 3186 3188 3190 3190 3190 3191 3190 3190 3192 3193 3193 3194 3195 3197 3199 3200 3202 3204 3206 3208 3210 3212 3213 3215 3216 3218 3218 3219 3220 3220 3220 3221 3223 3224 3225 3227 3228 3229 3231 3232 3234 3234 3234
3175 3176 3177 3178 3182 3182 3186 3188 3190 3190 3192 3193 3192 3191 3193 3194 3195 3195 3197 3198 3200 3201 3203 3205 3207 3210 3211 3213 3215 3217 3218 3220 3220 3220 3221 3222 3223 3224 3225 3226 3227 3229 3230 3232 3233 3235 3236 3236 3237
3177 3177 3178 3178 3179 3181 3185 3187 3189 3191 3194 3193 3193 3194 3195 3195 3196 3197 3198 3200 3202 3203 3204 3207 3209 3211 3213 3215 3217 3219 3220 3221 3221 3222 3223 3224 3225 3226 3227 3228 3229 3231 3232 3234 3236 3238 3238 3239 3239
3177 3176 3177 3178 3176 3178 3183 3186 3189 3191 3193 3194 3193 3195 3196 3197 3198 3199 3199 3201 3203 3205 3206 3208 3211 3214 3216 3217 3219 3220 3221 3222 3223 3224 3225 3226 3226 3227 3228 3229 3231 3232 3234 3236 3238 3240 3241 3242 3242
3176 3176 3175 3175 3173 3175 3181 3185 3188 3190 3192 3194 3194 3195 3197 3199 3201 3201 3201 3203 3204 3206 3208 3209 3212 3215 3217 3219 3220 3221 3222 3223 3224 3225 3226 3227 3227 3228 3230 3230 3232 3233 3235 3237 3240 3242 3243 3244 3245
3174 3175 3174 3174 3173 3175 3180 3184 3188 3190 3192 3193 3195 3196 3198 3199 3201 3202 3202 3204 3205 3207 3209 3211 3213 3216 3217 3219 3221 3222 3223 3224 3225 3227 3227 3228 3229 3230 3231 3232 3234 3236 3238 3239 3241 3243 3245 3247 3248
3175 3176 3175 3174 3173 3174 3181 3181 3185 3188 3190 3192 3194 3195 3197 3199 3201 3202 3203 3204 3206 3207 3209 3212 3214 3216 3218 3220 3222 3224 3224 3225 3226 3228 3230 3231 3231 3232 3233 3234 3236 3238 3240 3242 3244 3246 3248 3250 3250
3173 3175 3174 3173 3173 3175 3178 3179 3181 3183 3188 3191 3193 3195 3197 3199 3201 3202 3204 3205 3206 3207 3209 3212 3215 3217 3219 3221 3223 3224 3225 3226 3227 3229 3230 3231 3232 3233 3235 3236 3238 3240 3242 3244 3246 3249 3251 3252 3252
3173 3174 3174 3174 3175 3174 3175 3176 3177 3180 3183 3188 3192 3194 3196 3198 3201 3202 3203 3205 3206 3207 3209 3211 3215 3217 3219 3221 3223 3225 3226 3228 3229 3230 3231 3232 3233 3235 3237 3238 3240 3242 3244 3246 3249 3251 3253 3254 3255
3172 3173 3173 3173 3172 3171 3171 3171 3172 3177 3180 3183 3185 3190 3195 3198 3200 3201 3203 3205 3206 3207 3208 3210 3214 3216 3218 3221 3223 3225 3227 3228 3230 3232 3233 3234 3235 3236 3238 3240 3242 3244 3246 3248 3251 3253 3255 3255 3256
3171 3172 3173 3172 3172 3171 3170 3170 3167 3170 3175 3179 3181 3184 3191 3195 3197 3199 3202 3204 3206 3207 3208 3210 3212 3216 3219 3221 3224 3226 3227 3229 3230 3232 3234 3235 3236 3237 3239 3241 3243 3245 3247 3249 3251 3253 3255 3255 3256
3169 3170 3171 3171 3170 3170 3170 3168 3166 3165 3169 3174 3176 3182 3186 3191 3195 3198 3200 3203 3205 3207 3208 3209 3212 3214 3217 3220 3222 3225 3227 3229 3231 3233 3234 3236 3237 3238 3239 3241 3243 3245 3248 3250 3252 3254 3255 3256 3257
3167 3168 3169 3169 3170 3170 3169 3167 3162 3162 3162 3168 3171 3177 3181 3186 3191 3196 3199 3201 3204 3206 3207 3208 3211 3213 3215 3218 3222 3225 3227 3229 3231 3232 3234 3235 3236 3238 3240 3241 3243 3245 3247 3248 3251 3252 3254 3255 3256
3165 3166 3167 3168 3168 3167 3165 3167 3156 3157 3156 3158 3165 3170 3176 3181 3185 3191 3195 3199 3202 3204 3206 3208 3209 3211 3214 3217 3220 3223 3225 3226 3229 3230 3232 3234 3236 3237 3239 3240 3242 3244 3245 3246 3248 3250 3252 3253 3255
3162 3164 3165 3166 3166 3165 3161 3162 3151 3148 3150 3155 3160 3165 3170 3176 3180 3186 3192 3196 3199 3201 3204 3205 3207 3209 3212 3216 3219 3221 3223 3225 3227 3230 3231 3233 3234 3235 3237 3239 3240 3242 3243 3244 3245 3247 3249 3250 3252
3159 3163 3165 3166 3163 3159 3157 3159 3145 3144 3146 3149 3150 3152 3161 3170 3175 3180 3185 3191 3195 3198 3201 3204 3205 3208 3210 3214 3217 3220 3222 3223 3225 3227 3229 3231 3232 3233 3235 3236 3237 3239 3240 3242 3243 3244 3246 3247 3248
3156 3159 3160 3157 3155 3156 3156 3150 3141 3141 3142 3142 3144 3146 3153 3164 3169 3174 3181 3186 3192 3195 3198 3201 3203 3206 3208 3211 3215 3218 3220 3222 3224 3225 3227 3228 3230 3231 3233 3234 3236 3237 3238 3239 3240 3241 3242 3243 3244
3153 3154 3157 3156 3154 3153 3150 3144 3140 3138 3138 3138 3138 3140 3150 3157 3164 3169 3175 3183 3188 3192 3196 3199 3201 3204 3207 3210 3212 3215 3217 3220 3222 3224 3225 3226 3228 3229 3231 3232 3233 3234 3235 3236 3237 3238 3239 3240 3241
3151 3152 3155 3155 3153 3149 3145 3142 3139 3135 3134 3135 3136 3139 3145 3151 3159 3165 3172 3179 3185 3189 3194 3196 3199 3202 3205 3208 3210 3212 3215 3217 3220 3221 3223 3224 3226 3228 3229 3230 3231 3232 3233 3234 3234 3235 3236 3237 3237
3148 3148 3150 3151 3150 3147 3144 3140 3139 3134 3133 3132 3133 3133 3136 3144 3154 3161 3168 3175 3182 3187 3190 3193 3196 3199 3202 3205 3207 3210 3212 3215 3217 3218 3220 3222 3223 3225 3226 3226 3228 3229 3230 3231 3231 3232 3232 3233 3234
3143 3144 3146 3145 3149 3146 3144 3141 3138 3132 3131 3134 3133 3130 3135 3144 3149 3157 3162 3169 3174 3182 3186 3190 3193 3197 3200 3203 3205 3208 3209 3211 3213 3215 3217 3218 3221 3221 3222 3224 3225 3225 3225 3226 3227 3228 3229 3228 3229